| time (UTC) | temp C | wind direction | speed KPH | gust KPH | rain 1hr cm | rain 24hr cm | rain mn cm | humidity % | barometer mb |
| 20260506213105 | 8 | 0 | 0.0 | 0.0 | 0.00 | 1.35 | 1.27 | 93 | 1010.0 |
| 20260506212025 | 8 | 0 | 0.0 | 0.0 | 0.00 | 1.37 | 1.27 | 93 | 1009.9 |
| 20260506210043 | 8 | 0 | 0.0 | 0.0 | 0.00 | 1.45 | 1.27 | 92 | 1009.6 |
| 20260506202021 | 8 | 0 | 0.0 | 0.0 | 0.00 | 1.55 | 1.27 | 91 | 1009.5 |
| 20260506194016 | 7 | 0 | 0.0 | 0.0 | 0.00 | 1.63 | 1.27 | 89 | 1009.2 |
| 20260506192019 | 8 | 0 | 0.0 | 0.0 | 0.00 | 1.68 | 1.27 | 88 | 1009.0 |
| 20260506191049 | 8 | 0 | 0.0 | 0.0 | 0.00 | 1.68 | 1.27 | 90 | 1008.9 |
| 20260506190038 | 8 | 0 | 0.0 | 0.0 | 0.00 | 1.70 | 1.27 | 89 | 1008.7 |
| 20260506183104 | 9 | 0 | 0.0 | 0.0 | 0.00 | 1.78 | 1.27 | 88 | 1008.4 |
| 20260506182104 | 10 | 0 | 0.0 | 0.0 | 0.00 | 1.78 | 1.27 | 86 | 1008.3 |
| 20260506181021 | 10 | 0 | 0.0 | 0.0 | 0.00 | 1.88 | 1.27 | 84 | 1008.1 |
| 20260506180036 | 11 | 0 | 0.0 | 0.0 | 0.00 | 1.88 | 1.27 | 83 | 1007.9 |
| 20260506175022 | 11 | 0 | 0.0 | 0.0 | 0.00 | 1.88 | 1.27 | 84 | 1007.7 |
| 20260506174017 | 11 | 0 | 0.0 | 0.0 | 0.00 | 1.88 | 1.27 | 81 | 1007.6 |
| 20260506173016 | 11 | 0 | 0.0 | 0.0 | 0.00 | 1.88 | 1.27 | 83 | 1007.5 |
| 20260506172021 | 11 | 0 | 0.0 | 0.0 | 0.00 | 1.88 | 1.27 | 81 | 1007.3 |
| 20260506165016 | 12 | 0 | 0.0 | 0.0 | 0.00 | 1.88 | 1.27 | 80 | 1007.1 |
| 20260506164059 | 11 | 0 | 0.0 | 0.0 | 0.00 | 1.88 | 1.27 | 83 | 1007.1 |
| 20260506162055 | 11 | 0 | 0.0 | 0.0 | 0.00 | 1.88 | 1.27 | 85 | 1007.1 |
| 20260506161015 | 11 | 0 | 0.0 | 0.0 | 0.00 | 1.88 | 1.27 | 85 | 1007.2 |
| 20260506160015 | 11 | 0 | 0.0 | 0.0 | 0.00 | 1.88 | 1.27 | 84 | 1007.2 |
| 20260506154022 | 12 | 0 | 0.0 | 0.0 | 0.00 | 1.88 | 1.27 | 83 | 1006.9 |
| 20260506152016 | 12 | 0 | 0.0 | 0.0 | 0.00 | 1.88 | 1.27 | 84 | 1006.8 |
| 20260506150017 | 12 | 0 | 0.0 | 0.0 | 0.00 | 1.88 | 1.27 | 82 | 1006.8 |
| 20260506145100 | 12 | 0 | 0.0 | 0.0 | 0.00 | 1.88 | 1.27 | 85 | 1006.7 |
| 20260506143030 | 12 | 0 | 0.0 | 0.0 | 0.00 | 1.88 | 1.27 | 86 | 1006.8 |
| 20260506141056 | 12 | 0 | 0.0 | 0.0 | 0.00 | 1.88 | 1.27 | 87 | 1006.9 |
| 20260506140017 | 12 | 0 | 0.0 | 0.0 | 0.00 | 1.88 | 1.27 | 87 | 1006.9 |
| 20260506135057 | 11 | 0 | 0.0 | 0.0 | 0.00 | 1.88 | 1.27 | 87 | 1006.9 |
| 20260506132058 | 11 | 0 | 0.0 | 0.0 | 0.00 | 1.88 | 1.27 | 91 | 1007.0 |
| 20260506131022 | 10 | 0 | 0.0 | 0.0 | 0.00 | 1.88 | 1.27 | 91 | 1007.0 |
| 20260506130014 | 10 | 0 | 0.0 | 0.0 | 0.00 | 1.88 | 1.27 | 91 | 1007.0 |
| 20260506125016 | 10 | 0 | 0.0 | 0.0 | 0.00 | 1.88 | 1.27 | 90 | 1006.9 |
| 20260506123022 | 10 | 0 | 0.0 | 0.0 | 0.00 | 1.88 | 1.27 | 88 | 1006.8 |
| 20260506121016 | 11 | 0 | 0.0 | 0.0 | 0.00 | 1.88 | 1.27 | 88 | 1006.6 |
| 20260506114046 | 11 | 0 | 0.0 | 0.0 | 0.03 | 1.88 | 1.27 | 94 | 1006.6 |
| 20260506113057 | 10 | 0 | 0.0 | 0.0 | 0.03 | 1.88 | 1.27 | 95 | 1006.6 |
| 20260506112057 | 10 | 0 | 0.0 | 0.0 | 0.03 | 1.88 | 1.27 | 97 | 1006.7 |
| 20260506110054 | 10 | 0 | 0.0 | 0.0 | 0.03 | 1.88 | 1.27 | 96 | 1006.8 |
| 20260506104056 | 10 | 0 | 0.0 | 0.0 | 0.03 | 1.88 | 1.27 | 98 | 1006.7 |
| 20260506103056 | 9 | 0 | 0.0 | 0.0 | 0.00 | 1.85 | 1.27 | 98 | 1006.8 |
| 20260506102021 | 9 | 0 | 0.0 | 0.0 | 0.00 | 1.85 | 1.27 | 99 | 1006.7 |
| 20260506094029 | 8 | 0 | 0.0 | 0.0 | 0.08 | 1.91 | 1.27 | 99 | 1006.4 |
| 20260506092026 | 8 | 0 | 0.0 | 0.0 | 0.08 | 1.98 | 1.27 | 99 | 1006.3 |
| 20260506090023 | 8 | 0 | 0.0 | 0.0 | 0.08 | 1.96 | 1.24 | 10 | 1006.2 |
| 20260506085055 | 8 | 0 | 0.0 | 0.0 | 0.05 | 1.93 | 1.22 | 10 | 1006.1 |
| 20260506084022 | 8 | 0 | 0.0 | 0.0 | 0.05 | 1.93 | 1.22 | 10 | 1006.0 |
| 20260506081023 | 8 | 0 | 0.0 | 0.0 | 0.05 | 1.91 | 1.17 | 10 | 1005.8 |
| 20260506073033 | 8 | 0 | 0.0 | 0.0 | 0.10 | 1.88 | 1.17 | 10 | 1005.5 |
| 20260506043056 | 7 | 0 | 0.0 | 0.0 | 0.15 | 1.65 | 0.89 | 10 | 1005.1 |
| 20260506040023 | 7 | 0 | 0.0 | 0.0 | 0.18 | 1.57 | 0.84 | 10 | 1005.1 |
| 20260506034057 | 7 | 0 | 0.0 | 0.0 | 0.15 | 1.55 | 0.79 | 10 | 1005.1 |
| 20260506032022 | 7 | 0 | 0.0 | 0.0 | 0.15 | 1.50 | 0.76 | 10 | 1005.2 |
| 20260506031051 | 7 | 0 | 0.0 | 0.0 | 0.13 | 1.47 | 0.74 | 99 | 1005.2 |
| 20260506022054 | 8 | 0 | 0.0 | 0.0 | 0.15 | 1.40 | 0.66 | 10 | 1005.4 |
| 20260506020053 | 8 | 0 | 0.0 | 0.0 | 0.15 | 1.37 | 0.61 | 99 | 1005.4 |
| 20260506012026 | 8 | 0 | 0.0 | 0.0 | 0.18 | 1.27 | 0.53 | 10 | 1005.5 |
| 20260506010023 | 8 | 0 | 0.0 | 0.0 | 0.33 | 1.24 | 0.51 | 10 | 1005.5 |
| 20260506004053 | 8 | 0 | 0.0 | 0.0 | 0.28 | 1.17 | 0.43 | 10 | 1005.6 |